| time (UTC) | temp F | wind direction | speed knots | gust knots | rain 1hr in | rain 24hr in | rain mn in | humidity % | barometer mb |
| 20260903104626 | 66 | 71 | 2.6 | 5.2 | 0.00 | 0.00 | 0.00 | 82 | 1008.7 |
| 20260903103002 | 66 | 70 | 1.7 | 7.0 | 0.00 | 0.00 | 0.00 | 81 | 1008.5 |
| 20260903101628 | 66 | 70 | 3.5 | 7.8 | 0.00 | 0.00 | 0.00 | 82 | 1008.6 |
| 20260903100018 | 66 | 75 | 2.6 | 7.0 | 0.00 | 0.00 | 0.00 | 82 | 1008.5 |
| 20260903094510 | 67 | 40 | 0.9 | 4.3 | 0.00 | 0.00 | 0.00 | 81 | 1008.5 |
| 20260903093031 | 67 | 49 | 1.7 | 6.1 | 0.00 | 0.00 | 0.00 | 80 | 1008.4 |
| 20260903091506 | 67 | 72 | 2.6 | 5.2 | 0.00 | 0.00 | 0.00 | 81 | 1008.4 |
| 20260903090023 | 67 | 76 | 1.7 | 3.5 | 0.00 | 0.00 | 0.00 | 81 | 1008.6 |
| 20260903084624 | 67 | 62 | 1.7 | 4.3 | 0.00 | 0.00 | 0.00 | 79 | 1008.8 |
| 20260903083001 | 67 | 59 | 0.9 | 5.2 | 0.00 | 0.00 | 0.00 | 79 | 1008.8 |
| 20260903081630 | 67 | 48 | 1.7 | 7.0 | 0.00 | 0.00 | 0.00 | 79 | 1008.7 |
| 20260903080125 | 67 | 92 | 2.6 | 7.8 | 0.00 | 0.00 | 0.00 | 78 | 1008.8 |
| 20260903074509 | 68 | 65 | 2.6 | 6.1 | 0.00 | 0.00 | 0.00 | 77 | 1008.9 |
| 20260903073012 | 68 | 80 | 0.9 | 3.5 | 0.00 | 0.00 | 0.00 | 77 | 1009.0 |
| 20260903071626 | 68 | 98 | 1.7 | 4.3 | 0.00 | 0.00 | 0.00 | 76 | 1009.0 |
| 20260903070019 | 69 | 35 | 1.7 | 7.8 | 0.00 | 0.00 | 0.00 | 74 | 1009.1 |
| 20260903064506 | 69 | 57 | 1.7 | 5.2 | 0.00 | 0.00 | 0.00 | 74 | 1009.3 |
| 20260903063125 | 70 | 22 | 2.6 | 5.2 | 0.00 | 0.00 | 0.00 | 74 | 1009.2 |
| 20260903061630 | 70 | 63 | 1.7 | 4.3 | 0.00 | 0.00 | 0.00 | 74 | 1009.3 |
| 20260903060131 | 70 | 66 | 0.9 | 2.6 | 0.00 | 0.00 | 0.00 | 75 | 1009.5 |
| 20260903054522 | 69 | 72 | 0.9 | 4.3 | 0.00 | 0.00 | 0.00 | 75 | 1009.6 |
| 20260903053130 | 69 | 48 | 0.9 | 4.3 | 0.00 | 0.00 | 0.00 | 75 | 1009.6 |
| 20260903051505 | 69 | 49 | 0.9 | 3.5 | 0.00 | 0.00 | 0.00 | 74 | 1009.7 |
| 20260903050009 | 70 | 42 | 0.9 | 3.5 | 0.00 | 0.00 | 0.00 | 73 | 1009.7 |
| 20260903044506 | 70 | 38 | 0.9 | 3.5 | 0.00 | 0.00 | 0.00 | 73 | 1009.7 |
| 20260903043124 | 70 | 40 | 1.7 | 3.5 | 0.00 | 0.00 | 0.00 | 72 | 1009.7 |
| 20260903041517 | 71 | 65 | 0.9 | 4.3 | 0.00 | 0.00 | 0.00 | 71 | 1009.7 |
| 20260903040008 | 71 | 59 | 2.6 | 5.2 | 0.00 | 0.00 | 0.00 | 70 | 1009.7 |
| 20260903034514 | 72 | 51 | 2.6 | 5.2 | 0.00 | 0.00 | 0.00 | 69 | 1009.7 |
| 20260903033122 | 72 | 51 | 2.6 | 5.2 | 0.00 | 0.00 | 0.00 | 68 | 1009.9 |
| 20260903031503 | 72 | 49 | 1.7 | 4.3 | 0.00 | 0.00 | 0.00 | 69 | 1009.9 |
| 20260903030127 | 73 | 43 | 1.7 | 5.2 | 0.00 | 0.00 | 0.00 | 68 | 1010.0 |
| 20260903024512 | 73 | 74 | 1.7 | 4.3 | 0.00 | 0.00 | 0.00 | 67 | 1009.9 |
| 20260903023002 | 74 | 55 | 2.6 | 5.2 | 0.00 | 0.00 | 0.00 | 67 | 1010.0 |
| 20260903021627 | 73 | 56 | 0.9 | 4.3 | 0.00 | 0.00 | 0.00 | 69 | 1009.9 |
| 20260903020012 | 73 | 43 | 1.7 | 2.6 | 0.00 | 0.00 | 0.00 | 71 | 1009.7 |
| 20260903014510 | 74 | 43 | 0.9 | 2.6 | 0.00 | 0.00 | 0.00 | 69 | 1009.3 |
| 20260903013007 | 72 | 43 | 1.7 | 3.5 | 0.00 | 0.00 | 0.00 | 72 | 1009.2 |
| 20260903011510 | 73 | 43 | 0.9 | 1.7 | 0.00 | 0.00 | 0.00 | 72 | 1009.2 |
| 20260903010008 | 73 | 43 | 0.0 | 0.9 | 0.00 | 0.00 | 0.00 | 69 | 1009.2 |
| 20260903004520 | 76 | 43 | 0.0 | 2.6 | 0.00 | 0.00 | 0.00 | 64 | 1009.2 |
| 20260903003010 | 79 | 43 | 0.9 | 4.3 | 0.00 | 0.00 | 0.00 | 57 | 1009.1 |
| 20260903001514 | 80 | 45 | 1.7 | 4.3 | 0.00 | 0.00 | 0.00 | 56 | 1009.1 |
| 20260903000132 | 80 | 64 | 2.6 | 5.2 | 0.00 | 0.00 | 0.00 | 56 | 1009.0 |
| 20260902234505 | 82 | 35 | 2.6 | 4.3 | 0.00 | 0.00 | 0.00 | 54 | 1009.2 |
| 20260902233002 | 81 | 69 | 0.9 | 4.3 | 0.00 | 0.00 | 0.00 | 59 | 1009.1 |
| 20260902231518 | 80 | 85 | 0.9 | 2.6 | 0.00 | 0.00 | 0.00 | 58 | 1009.1 |
| 20260902230139 | 83 | 53 | 2.6 | 7.0 | 0.00 | 0.00 | 0.00 | 52 | 1009.2 |
| 20260902224514 | 82 | 69 | 3.5 | 5.2 | 0.00 | 0.00 | 0.00 | 53 | 1009.2 |
| 20260902223128 | 83 | 146 | 1.7 | 4.3 | 0.00 | 0.00 | 0.00 | 50 | 1009.3 |
| 20260902221516 | 82 | 76 | 1.7 | 4.3 | 0.00 | 0.00 | 0.00 | 53 | 1009.3 |
| 20260902220006 | 82 | 300 | 0.9 | 5.2 | 0.00 | 0.00 | 0.00 | 52 | 1009.4 |
| 20260902214510 | 83 | 351 | 3.5 | 6.1 | 0.00 | 0.00 | 0.00 | 52 | 1009.2 |
| 20260902213013 | 83 | 52 | 2.6 | 7.0 | 0.00 | 0.00 | 0.00 | 52 | 1009.4 |
| 20260902211518 | 83 | 88 | 3.5 | 7.8 | 0.00 | 0.00 | 0.00 | 53 | 1009.5 |
| 20260902210010 | 82 | 48 | 0.9 | 7.8 | 0.00 | 0.00 | 0.00 | 53 | 1009.6 |
| 20260902204514 | 82 | 355 | 2.6 | 6.1 | 0.00 | 0.00 | 0.00 | 54 | 1009.6 |
| 20260902203008 | 81 | 55 | 0.9 | 5.2 | 0.00 | 0.00 | 0.00 | 55 | 1009.7 |
| 20260902201503 | 81 | 101 | 2.6 | 7.8 | 0.00 | 0.00 | 0.00 | 56 | 1009.7 |
| 20260902200021 | 80 | 20 | 1.7 | 6.1 | 0.00 | 0.00 | 0.00 | 59 | 1009.8 |
| 20260902194507 | 80 | 63 | 1.7 | 5.2 | 0.00 | 0.00 | 0.00 | 58 | 1010.0 |
| 20260902193131 | 81 | 54 | 3.5 | 7.8 | 0.00 | 0.00 | 0.00 | 59 | 1010.0 |
| 20260902191621 | 79 | 88 | 0.9 | 5.2 | 0.00 | 0.00 | 0.00 | 58 | 1010.2 |
| 20260902190004 | 79 | 54 | 0.9 | 5.2 | 0.00 | 0.00 | 0.00 | 56 | 1010.5 |
| 20260902184512 | 79 | 87 | 2.6 | 5.2 | 0.00 | 0.00 | 0.00 | 58 | 1010.7 |
| 20260902183018 | 79 | 61 | 2.6 | 5.2 | 0.00 | 0.00 | 0.00 | 60 | 1010.8 |
| 20260902181629 | 79 | 22 | 1.7 | 8.7 | 0.00 | 0.00 | 0.00 | 59 | 1010.9 |
| 20260902180008 | 80 | 112 | 0.9 | 3.5 | 0.00 | 0.00 | 0.00 | 66 | 1011.0 |
| 20260902174626 | 78 | 119 | 2.6 | 7.8 | 0.00 | 0.00 | 0.00 | 65 | 1011.0 |
| 20260902173012 | 77 | 22 | 0.9 | 5.2 | 0.00 | 0.00 | 0.00 | 65 | 1011.0 |
| 20260902171511 | 78 | 45 | 1.7 | 5.2 | 0.00 | 0.00 | 0.00 | 66 | 1011.0 |
| 20260902170011 | 77 | 40 | 0.9 | 5.2 | 0.00 | 0.00 | 0.00 | 64 | 1011.1 |
| 20260902164626 | 77 | 69 | 2.6 | 5.2 | 0.00 | 0.00 | 0.00 | 65 | 1011.1 |
| 20260902163001 | 75 | 355 | 3.5 | 5.2 | 0.00 | 0.00 | 0.00 | 69 | 1011.3 |
| 20260902161513 | 75 | 28 | 1.7 | 5.2 | 0.00 | 0.00 | 0.00 | 70 | 1011.3 |
| 20260902160010 | 74 | 121 | 0.9 | 3.5 | 0.00 | 0.00 | 0.00 | 69 | 1011.4 |
| 20260902154501 | 72 | 181 | 1.7 | 5.2 | 0.00 | 0.00 | 0.00 | 75 | 1011.6 |
| 20260902153009 | 72 | 175 | 1.7 | 4.3 | 0.00 | 0.00 | 0.00 | 75 | 1011.4 |
| 20260902151627 | 73 | 88 | 1.7 | 5.2 | 0.00 | 0.00 | 0.00 | 75 | 1011.0 |
| 20260902150007 | 72 | 124 | 0.0 | 2.6 | 0.00 | 0.00 | 0.00 | 74 | 1010.8 |
| 20260902144512 | 72 | 124 | 0.9 | 5.2 | 0.00 | 0.00 | 0.00 | 75 | 1010.9 |
| 20260902143011 | 71 | 178 | 2.6 | 6.1 | 0.00 | 0.00 | 0.00 | 78 | 1011.0 |
| 20260902141511 | 70 | 176 | 1.7 | 5.2 | 0.00 | 0.00 | 0.00 | 80 | 1011.0 |
| 20260902140015 | 68 | 185 | 1.7 | 4.3 | 0.00 | 0.00 | 0.00 | 82 | 1011.4 |
| 20260902134625 | 68 | 101 | 0.9 | 4.3 | 0.00 | 0.00 | 0.00 | 82 | 1011.6 |
| 20260902133005 | 67 | 146 | 0.0 | 3.5 | 0.00 | 0.00 | 0.00 | 84 | 1011.4 |
| 20260902131630 | 67 | 111 | 1.7 | 3.5 | 0.00 | 0.00 | 0.00 | 86 | 1011.2 |
| 20260902130014 | 65 | 126 | 1.7 | 3.5 | 0.00 | 0.00 | 0.00 | 89 | 1011.3 |
| 20260902124513 | 64 | 126 | 2.6 | 5.2 | 0.00 | 0.00 | 0.00 | 88 | 1011.5 |
| 20260902123016 | 64 | 102 | 1.7 | 5.2 | 0.00 | 0.00 | 0.00 | 89 | 1011.5 |
| 20260902121628 | 64 | 134 | 2.6 | 3.5 | 0.00 | 0.00 | 0.00 | 89 | 1011.7 |
| 20260902120146 | 64 | 161 | 0.0 | 1.7 | 0.00 | 0.00 | 0.00 | 89 | 1011.8 |
| 20260902114505 | 64 | 161 | 0.0 | 0.9 | 0.00 | 0.00 | 0.00 | 88 | 1011.8 |
| 20260902113007 | 64 | 161 | 0.0 | 1.7 | 0.00 | 0.00 | 0.00 | 88 | 1011.5 |
| 20260902111514 | 64 | 161 | 0.0 | 2.6 | 0.00 | 0.00 | 0.00 | 89 | 1011.4 |
| 20260902110134 | 63 | 167 | 3.5 | 6.1 | 0.00 | 0.00 | 0.00 | 89 | 1011.6 |